THORAD DELTA 1 DEB, 8163

Orbit data source: Space-Track

THORAD DELTA 1 DEB, 8163 is space debris in SSO originally from a launch on Fri, 15 Nov 1974 UTC launched from the Air Force Western Test Range (AFWTR). Debris objects in space refer to the collection of defunct objects orbiting the Earth. Examples of debris include non-operational satellites, rocket bodies, and fragments generated from explosions, collisions, or faulty payload assembly.

Loading next visibility...
THORAD DELTA 1 DEB details
Identifier
8163, 1974-089AD
Orbit
SSO
Last TLE update3 days ago
Origin
Flag of USGSFC (US)
ManufacturerUnknown
MissionSpacecraft
Bus & MotorUnknown
MassUnknown
Launch date (UTC)
1974-11-15 (50 years ago)
Launch vehicleUnknown
Launch site
Air Force Western Test Range (AFWTR)
Object type
Payload
Rocket body
Debris
Shape & HBRUnknown
Radar Cross SectionSmall (<0.1 m²)

Expand to show TLE details & history

TLE from 3 days ago
0 THORAD DELTA 1 DEB
1 08163U 74089AD  25035.43265688  .00001268  00000-0  82551-2 0  9993
2 08163 102.5108  39.6452 0334395 245.4272 111.1600 12.38809429249033
Epoch: 2025-02-04T10:23Z
Definitive object data (Epoch: 2025-02-04T10:23:01.554Z)
Latitude-0°
Longitude109.0507°
Altitude1,616.965 km
Speed7.016 km/s
True Right ascension02h 38m 34s
True Declination0° 00' 00"
Sunlit
Object was in daylight at TLE epoch
Visualization TLE readout
Latitude46.84303°
Longitude98.67188°
Altitude1,776.829 km
Speed6.881 km/s
Apparent Right ascension03h 06m 29s
Apparent Declination10° 34' 26"
Sunlit
Object is in daylight
Visualization observer readout
Local Sidereal Time16:26:01
Azimuth24.493° NE
Elevation-36.247°
Doppler factor1
Orbital elements
Apogee altitude1,773.008 km
Perigee altitude1,245.507 km
Semi-major axis7,887.394 km
Eccentricity0.0334395
Inclination102.5108°
RAAN39.6452°
Arg. of periapsis245.4272°
True anomaly114.67817°
Mean anomaly111.16°
Eccentric anomaly112.92462°
Mean motion3.09844 °/min
BSTAR0.0082551
Orbital period116.19 mins
Loading maneuver chart data...

THORAD DELTA 1 DEB Visibility forecast

Observer location: undefined°, undefined

Span
Click to sort rows by Start time (UTC) header in descending order
Start Az.
Max El. time (UTC)
Max El. Az.
Max El.
End time (UTC)
End Az.
14 mins2025-02-07 14:35:40.887Z2.18° NNE2025-02-07 14:42:40.887Z309.633° NW29.517°2025-02-07 14:49:40.887Z247.295° WSW
12 mins2025-02-07 21:55:40.887Z90.272° ESE2025-02-07 22:01:40.887Z45.787° ENE22.733°2025-02-07 22:07:40.887Z5.003° NNE
18 mins2025-02-07 23:45:40.887Z156.807° SSE2025-02-07 23:53:40.887Z85.9° E44.95°2025-02-08 00:03:40.887Z342.587° N
13 mins2025-02-08 01:42:40.887Z225.784° WSW2025-02-08 01:48:40.887Z268.741° W20.984°2025-02-08 01:55:40.887Z315.059° NNW
13 mins2025-02-08 11:59:40.887Z43.621° NE2025-02-08 12:05:40.887Z96.861° ESE28.328°2025-02-08 12:12:40.887Z156.556° SSE
15 mins2025-02-08 13:52:40.887Z8.793° NNE2025-02-08 13:59:40.887Z304.049° NW40.359°2025-02-08 14:07:40.887Z221.154° SW
|